TimeCDT,TemperatureF,Dew PointF,Humidity,Sea Level PressureIn,VisibilityMPH,Wind Direction,Wind SpeedMPH,Gust SpeedMPH,PrecipitationIn,Events,Conditions,WindDirDegrees,DateUTC
12:53 AM,75.9,72.0,87,29.94,10.0,NNW,12.7,-,N/A,,Mostly Cloudy,330,2013-06-28 05:53:00
1:53 AM,75.0,71.1,87,29.93,10.0,NNW,8.1,-,N/A,,Mostly Cloudy,340,2013-06-28 06:53:00
2:53 AM,73.9,71.1,91,29.93,10.0,North,10.4,-,N/A,,Mostly Cloudy,350,2013-06-28 07:53:00
3:53 AM,73.9,71.1,91,29.93,10.0,NNW,8.1,-,N/A,,Mostly Cloudy,340,2013-06-28 08:53:00
4:53 AM,73.0,70.0,90,29.93,10.0,North,6.9,-,N/A,,Mostly Cloudy,360,2013-06-28 09:53:00
5:53 AM,72.0,69.1,91,29.95,10.0,North,8.1,-,N/A,,Mostly Cloudy,350,2013-06-28 10:53:00
6:53 AM,71.1,68.0,90,29.98,10.0,North,5.8,-,N/A,,Mostly Cloudy,350,2013-06-28 11:53:00
7:53 AM,73.9,68.0,82,29.99,10.0,North,5.8,-,N/A,,Mostly Cloudy,360,2013-06-28 12:53:00
8:53 AM,78.1,68.0,71,30.01,10.0,North,9.2,-,N/A,,Mostly Cloudy,350,2013-06-28 13:53:00
9:53 AM,81.0,66.9,62,30.03,10.0,North,9.2,-,N/A,,Mostly Cloudy,350,2013-06-28 14:53:00
10:53 AM,82.9,69.1,63,30.01,10.0,Variable,3.5,-,N/A,,Mostly Cloudy,0,2013-06-28 15:53:00
11:53 AM,86.0,68.0,55,29.99,10.0,NW,8.1,-,N/A,,Mostly Cloudy,320,2013-06-28 16:53:00
12:53 PM,90.0,64.9,43,29.97,10.0,NW,10.4,-,N/A,,Mostly Cloudy,320,2013-06-28 17:53:00
1:53 PM,93.0,63.0,37,29.95,10.0,NNW,8.1,-,N/A,,Scattered Clouds,330,2013-06-28 18:53:00
2:53 PM,93.9,63.0,36,29.93,10.0,WNW,11.5,-,N/A,,Scattered Clouds,300,2013-06-28 19:53:00
3:53 PM,93.9,66.0,40,29.90,10.0,NNW,6.9,-,N/A,,Scattered Clouds,330,2013-06-28 20:53:00
4:53 PM,95.0,64.0,36,29.89,10.0,NNW,18.4,26.5,N/A,,Scattered Clouds,340,2013-06-28 21:53:00
5:53 PM,93.9,59.0,31,29.89,10.0,NNW,20.7,25.3,N/A,,Partly Cloudy,330,2013-06-28 22:53:00
6:53 PM,93.0,57.9,31,29.88,10.0,North,15.0,-,N/A,,Partly Cloudy,350,2013-06-28 23:53:00
7:53 PM,90.0,57.9,34,29.88,10.0,NNW,13.8,27.6,N/A,,Partly Cloudy,330,2013-06-29 00:53:00
8:53 PM,86.0,59.0,40,29.89,10.0,NNE,8.1,-,N/A,,Partly Cloudy,20,2013-06-29 01:53:00
9:53 PM,82.9,57.9,42,29.90,10.0,North,6.9,-,N/A,,Partly Cloudy,10,2013-06-29 02:53:00
10:53 PM,80.1,57.9,47,29.91,10.0,NNE,6.9,-,N/A,,Partly Cloudy,30,2013-06-29 03:53:00
11:53 PM,78.1,60.1,54,29.91,10.0,NNE,5.8,-,N/A,,Partly Cloudy,20,2013-06-29 04:53:00